Weather History for Mombasa, Kenya

Change the Weather History Date:

Saturday, September 22, 2012

  Actual Average Record
Temperature  
Mean Temperature 78 °F -  
Max Temperature 86 °F 86 °F 87 °F (2011)
Min Temperature 69 °F 69 °F 68 °F (1996)
Cooling Degree Days 12    
Growing Degree Days 28 (Base 50)    
Moisture  
Dew Point 67 °F    
Average Humidity 69    
Maximum Humidity 88    
Minimum Humidity 43    
Precipitation  
Precipitation 0.00 in 0.12 in - ()
Sea Level Pressure  
Sea Level Pressure 30.00 in    
Wind  
Wind Speed 6 mph ()    
Max Wind Speed 13 mph    
Max Gust Speed -    
Visibility 8.2 miles    
Events      
Averages and records for this station are not official NWS values.
T = Trace of Precipitation, MM = Missing Value Source: Averaged Metar Reports

Daily Weather History Graph

Daily Weather History Graph

Search for Another Location

Airport:

Trip Planner

Search our weather history database for the weather conditions in past years. The results will help you decide how hot, cold, wet, or windy it might be!

Date:

Astronomy

Sep. 22, 2012 Rise Set
Actual Time 6:10 AM EAT 6:17 PM EAT
Civil Twilight 5:50 AM EAT 6:38 PM EAT
Nautical Twilight 5:26 AM EAT 7:02 PM EAT
Astronomical Twilight 5:02 AM EAT 7:26 PM EAT
Moon 11:42 AM EAT No Moon Set
Length of Visible Light 12h 47m
Length of Day
12h 06m
Waxing Crescent, 45% of the Moon is Illuminated
Sep 22
Waxing Crescent
Sep 22
First Quarter
Sep 30
Full
Oct 8
Last Quarter
Oct 15
New

Hourly Weather History & Observations

Time (EAT) Temp. Heat Index Dew Point Humidity Pressure Visibility Wind Dir Wind Speed Gust Speed Precip Events Conditions
12:00 AM 71.6 °F - 68.0 °F 88% 30.01 in 6.2 mi SW 4.6 mph - N/A   Partly Cloudy
1:00 AM 71.6 °F - 68.0 °F 88% 29.98 in 6.2 mi SW 4.6 mph - N/A   Partly Cloudy
3:00 AM 71 °F - 67 °F 82% 29.97 in 19 mi SSW 6.9 mph - -   Scattered Clouds
4:00 AM 71.6 °F - 68.0 °F 88% 29.98 in 6.2 mi SSW 5.8 mph - N/A   Partly Cloudy
5:00 AM 71.6 °F - 68.0 °F 88% 29.98 in 6.2 mi SW 5.8 mph - N/A   Mostly Cloudy
6:00 AM 69.8 °F - 66.2 °F 88% 30.01 in 6.2 mi SSW 4.6 mph - N/A   Partly Cloudy
7:00 AM 71.6 °F - 68.0 °F 88% 30.04 in 6.2 mi SW 4.6 mph - N/A   Partly Cloudy
8:00 AM 75.2 °F - 68.0 °F 78% 30.04 in 6.2 mi SW 5.8 mph - N/A   Partly Cloudy
9:00 AM 80 °F - 69 °F 61% 30.07 in 19 mi South 12.7 mph - -   Mostly Cloudy
9:00 AM 78.8 °F - 69.8 °F 74% 30.06 in 6.2 mi South 12.7 mph - N/A   Mostly Cloudy
10:00 AM 84.2 °F 85.6 °F 64.4 °F 51% 30.06 in 6.2 mi South 9.2 mph - N/A   Partly Cloudy
11:00 AM 84.2 °F 85.0 °F 62.6 °F 48% 30.06 in 6.2 mi South 10.4 mph - N/A   Scattered Clouds
12:00 PM 86.0 °F 86.1 °F 60.8 °F 43% 30.04 in 6.2 mi South 6.9 mph - N/A   Partly Cloudy
1:00 PM 86.0 °F 86.6 °F 62.6 °F 45% 30.01 in 6.2 mi SSE 11.5 mph - N/A   Partly Cloudy
2:00 PM 86.0 °F 87.3 °F 64.4 °F 48% 29.98 in 6.2 mi SE 8.1 mph - N/A   Partly Cloudy
3:00 PM 84 °F - 66 °F 46% 29.95 in 19 mi SSE 9.2 mph - -   Scattered Clouds
3:00 PM 84.2 °F 86.6 °F 66.2 °F 55% 29.95 in 6.2 mi SSE 9.2 mph - N/A   Partly Cloudy
4:00 PM 82.4 °F 86.3 °F 69.8 °F 66% - 6.2 mi South 8.1 mph - N/A   Scattered Clouds
5:00 PM 82.4 °F 84.6 °F 66.2 °F 58% 29.95 in 6.2 mi SSE 8.1 mph - N/A   Partly Cloudy
6:00 PM 80.6 °F 83.2 °F 68.0 °F 65% 29.95 in 6.2 mi South 11.5 mph - N/A   Partly Cloudy
7:00 PM 78.8 °F - 66.2 °F 65% 29.95 in 6.2 mi South 6.9 mph - N/A   Partly Cloudy
8:00 PM 78.8 °F - 66.2 °F 65% 29.95 in 6.2 mi South 3.5 mph - N/A   Partly Cloudy
9:00 PM 77 °F - 68 °F 68% 29.98 in 19 mi South 5.8 mph - -   Scattered Clouds
9:00 PM 77.0 °F - 68.0 °F 74% 29.98 in 6.2 mi South 5.8 mph - N/A   Partly Cloudy
10:00 PM 75.2 °F - 69.8 °F 83% 29.98 in 6.2 mi SSW 3.5 mph - N/A   Partly Cloudy
11:00 PM 73.4 °F - 69.8 °F 88% 29.98 in 6.2 mi SW 4.6 mph - N/A   Partly Cloudy